Volver al catálogo

STARLINK-36982

ActivoComunicacionesVLEO
NORAD 68278·PAYLOAD·🇺🇸 United States

Lanzado Mar 19, 2026 desde Vandenberg Space Force Base

Loading…

Próximos Pases (próximas 24 horas)

TLE

ActualizadoSource: CelesTrak SupGP

Época: Sep 14, 2026, 21:31 UTC

1 68278C 26055S   26257.89701389 -.00039036  00000+0 -11531-2 0  2578
2 68278  53.1581 156.0512 0001331  76.4877 190.7788 15.34416207    17

Sigue STARLINK-36982 en tiempo real con AllMySat

Download on the App Store